| time (UTC) | temp C | wind direction | speed KPH | gust KPH | rain 1hr cm | rain 24hr cm | rain mn cm | humidity % | barometer mb |
| 20260510022306 | 20 | 358 | 14.5 | 20.9 | 0.00 | 0.00 | 0.00 | 54 | 1026.2 |
| 20260510021805 | 20 | 4 | 8.0 | 12.9 | 0.00 | 0.00 | 0.00 | 55 | 1026.2 |
| 20260510021305 | 19 | 12 | 9.7 | 19.3 | 0.00 | 0.00 | 0.00 | 55 | 1026.2 |
| 20260510020804 | 19 | 23 | 11.3 | 29.0 | 0.00 | 0.00 | 0.00 | 56 | 1026.2 |
| 20260510020305 | 18 | 79 | 8.0 | 19.3 | 0.00 | 0.00 | 0.00 | 59 | 1026.2 |
| 20260510015306 | 18 | 57 | 4.8 | 14.5 | 0.00 | 0.00 | 0.00 | 62 | 1026.2 |
| 20260510014805 | 17 | 42 | 8.0 | 12.9 | 0.00 | 0.00 | 0.00 | 62 | 1026.2 |
| 20260510014304 | 17 | 16 | 4.8 | 9.7 | 0.00 | 0.00 | 0.00 | 62 | 1026.2 |
| 20260510013804 | 17 | 41 | 4.8 | 11.3 | 0.00 | 0.00 | 0.00 | 63 | 1026.5 |
| 20260510013305 | 17 | 53 | 8.0 | 16.1 | 0.00 | 0.00 | 0.00 | 63 | 1026.5 |
| 20260510012804 | 17 | 21 | 8.0 | 19.3 | 0.00 | 0.00 | 0.00 | 63 | 1026.5 |
| 20260510011305 | 16 | 26 | 8.0 | 14.5 | 0.00 | 0.00 | 0.00 | 65 | 1026.5 |
| 20260510010805 | 16 | 13 | 6.4 | 14.5 | 0.00 | 0.00 | 0.00 | 66 | 1026.5 |
| 20260510010305 | 16 | 51 | 9.7 | 14.5 | 0.00 | 0.00 | 0.00 | 66 | 1026.5 |
| 20260510005806 | 15 | 33 | 4.8 | 16.1 | 0.00 | 0.00 | 0.00 | 66 | 1026.5 |
| 20260510005306 | 15 | 18 | 9.7 | 19.3 | 0.00 | 0.00 | 0.00 | 67 | 1026.5 |
| 20260510004305 | 15 | 55 | 8.0 | 14.5 | 0.00 | 0.00 | 0.00 | 68 | 1026.5 |
| 20260510003305 | 15 | 35 | 6.4 | 16.1 | 0.00 | 0.00 | 0.00 | 68 | 1026.5 |
| 20260510002306 | 14 | 14 | 8.0 | 16.1 | 0.00 | 0.00 | 0.00 | 69 | 1026.5 |
| 20260510001805 | 14 | 41 | 6.4 | 19.3 | 0.00 | 0.00 | 0.00 | 69 | 1026.5 |
| 20260510001304 | 14 | 33 | 11.3 | 19.3 | 0.00 | 0.00 | 0.00 | 70 | 1026.5 |
| 20260510000804 | 13 | 33 | 8.0 | 16.1 | 0.00 | 0.00 | 0.00 | 70 | 1026.5 |
| 20260510000306 | 13 | 41 | 6.4 | 16.1 | 0.00 | 0.00 | 0.00 | 70 | 1026.5 |
| 20260509235805 | 13 | 52 | 6.4 | 20.9 | 0.00 | 0.00 | 0.00 | 71 | 1026.5 |
| 20260509235307 | 13 | 37 | 8.0 | 14.5 | 0.00 | 0.00 | 0.00 | 71 | 1026.5 |
| 20260509234806 | 13 | 49 | 8.0 | 16.1 | 0.00 | 0.00 | 0.00 | 71 | 1026.5 |
| 20260509234304 | 13 | 25 | 6.4 | 11.3 | 0.00 | 0.00 | 0.00 | 72 | 1026.5 |
| 20260509233804 | 12 | 25 | 8.0 | 12.9 | 0.00 | 0.00 | 0.00 | 72 | 1026.4 |
| 20260509233304 | 12 | 40 | 6.4 | 14.5 | 0.00 | 0.00 | 0.00 | 73 | 1025.8 |
| 20260509232805 | 12 | 45 | 6.4 | 11.3 | 0.00 | 0.00 | 0.00 | 73 | 1025.8 |
| 20260509231805 | 12 | 16 | 3.2 | 9.7 | 0.00 | 0.00 | 0.00 | 73 | 1025.8 |
| 20260509230805 | 12 | 18 | 8.0 | 19.3 | 0.00 | 0.00 | 0.00 | 73 | 1025.8 |
| 20260509230304 | 12 | 48 | 4.8 | 11.3 | 0.00 | 0.00 | 0.00 | 73 | 1025.8 |
| 20260509225804 | 12 | 47 | 4.8 | 11.3 | 0.00 | 0.00 | 0.00 | 73 | 1025.8 |
| 20260509225306 | 12 | 44 | 4.8 | 11.3 | 0.00 | 0.00 | 0.00 | 73 | 1025.8 |
| 20260509224305 | 12 | 33 | 8.0 | 16.1 | 0.00 | 0.00 | 0.00 | 73 | 1025.8 |
| 20260509223804 | 12 | 42 | 8.0 | 19.3 | 0.00 | 0.00 | 0.00 | 73 | 1025.8 |
| 20260509223304 | 12 | 34 | 4.8 | 19.3 | 0.00 | 0.00 | 0.00 | 73 | 1025.8 |
| 20260509222804 | 12 | 44 | 8.0 | 16.1 | 0.00 | 0.00 | 0.00 | 73 | 1025.8 |
| 20260509222307 | 12 | 33 | 6.4 | 12.9 | 0.00 | 0.00 | 0.00 | 73 | 1025.8 |
| 20260509221804 | 12 | 42 | 8.0 | 12.9 | 0.00 | 0.00 | 0.00 | 73 | 1025.8 |
| 20260509220804 | 12 | 46 | 8.0 | 12.9 | 0.00 | 0.00 | 0.00 | 73 | 1025.8 |
| 20260509220305 | 12 | 39 | 6.4 | 12.9 | 0.00 | 0.00 | 0.00 | 73 | 1025.8 |
| 20260509215805 | 12 | 38 | 6.4 | 14.5 | 0.00 | 0.00 | 0.00 | 72 | 1025.8 |
| 20260509215306 | 12 | 39 | 8.0 | 12.9 | 0.00 | 0.00 | 0.00 | 72 | 1025.8 |
| 20260509214805 | 12 | 46 | 8.0 | 12.9 | 0.00 | 0.00 | 0.00 | 72 | 1025.8 |
| 20260509214304 | 12 | 51 | 8.0 | 16.1 | 0.00 | 0.00 | 0.00 | 72 | 1025.8 |
| 20260509213804 | 12 | 42 | 6.4 | 16.1 | 0.00 | 0.00 | 0.00 | 72 | 1025.8 |
| 20260509213305 | 12 | 32 | 8.0 | 12.9 | 0.00 | 0.00 | 0.00 | 72 | 1025.8 |
| 20260509212804 | 12 | 47 | 6.4 | 12.9 | 0.00 | 0.00 | 0.00 | 72 | 1025.8 |
| 20260509212306 | 12 | 45 | 6.4 | 12.9 | 0.00 | 0.00 | 0.00 | 72 | 1025.8 |
| 20260509211804 | 12 | 47 | 8.0 | 14.5 | 0.00 | 0.00 | 0.00 | 72 | 1025.7 |
| 20260509211304 | 12 | 43 | 8.0 | 11.3 | 0.00 | 0.00 | 0.00 | 72 | 1025.3 |
| 20260509210805 | 12 | 53 | 8.0 | 12.9 | 0.00 | 0.00 | 0.00 | 72 | 1025.3 |
| 20260509210305 | 12 | 39 | 6.4 | 9.7 | 0.00 | 0.00 | 0.00 | 72 | 1025.3 |
| 20260509205805 | 12 | 47 | 9.7 | 19.3 | 0.00 | 0.00 | 0.00 | 72 | 1025.3 |
| 20260509204804 | 12 | 41 | 8.0 | 14.5 | 0.00 | 0.00 | 0.00 | 73 | 1025.3 |
| 20260509204305 | 12 | 30 | 8.0 | 14.5 | 0.00 | 0.00 | 0.00 | 73 | 1025.3 |
| 20260509203804 | 12 | 47 | 6.4 | 14.5 | 0.00 | 0.00 | 0.00 | 73 | 1025.3 |
| 20260509203304 | 12 | 38 | 6.4 | 19.3 | 0.00 | 0.00 | 0.00 | 73 | 1025.3 |
| 20260509202804 | 12 | 36 | 6.4 | 11.3 | 0.00 | 0.00 | 0.00 | 73 | 1025.3 |
| 20260509202307 | 12 | 30 | 8.0 | 14.5 | 0.00 | 0.00 | 0.00 | 73 | 1025.3 |
| 20260509201805 | 12 | 29 | 6.4 | 11.3 | 0.00 | 0.00 | 0.00 | 74 | 1025.3 |
| 20260509201305 | 11 | 40 | 8.0 | 14.5 | 0.00 | 0.00 | 0.00 | 74 | 1025.2 |
| 20260509200805 | 11 | 36 | 3.2 | 11.3 | 0.00 | 0.00 | 0.00 | 75 | 1025.2 |
| 20260509200304 | 11 | 22 | 3.2 | 4.8 | 0.00 | 0.00 | 0.00 | 76 | 1025.2 |
| 20260509195805 | 11 | 42 | 4.8 | 9.7 | 0.00 | 0.00 | 0.00 | 76 | 1025.2 |
| 20260509194804 | 11 | 52 | 3.2 | 4.8 | 0.00 | 0.00 | 0.00 | 76 | 1025.2 |
| 20260509194305 | 11 | 45 | 3.2 | 4.8 | 0.00 | 0.00 | 0.00 | 76 | 1025.2 |
| 20260509193805 | 11 | 46 | 4.8 | 8.0 | 0.00 | 0.00 | 0.00 | 76 | 1025.2 |
| 20260509193305 | 11 | 48 | 3.2 | 4.8 | 0.00 | 0.00 | 0.00 | 76 | 1025.2 |
| 20260509192805 | 11 | 45 | 3.2 | 4.8 | 0.00 | 0.00 | 0.00 | 76 | 1025.2 |
| 20260509192306 | 11 | 43 | 1.6 | 3.2 | 0.00 | 0.00 | 0.00 | 76 | 1025.2 |
| 20260509191805 | 11 | 36 | 3.2 | 8.0 | 0.00 | 0.00 | 0.00 | 76 | 1025.2 |
| 20260509191304 | 11 | 50 | 4.8 | 4.8 | 0.00 | 0.00 | 0.00 | 76 | 1025.4 |
| 20260509190805 | 11 | 49 | 4.8 | 4.8 | 0.00 | 0.00 | 0.00 | 77 | 1025.4 |
| 20260509190304 | 11 | 54 | 4.8 | 8.0 | 0.00 | 0.00 | 0.00 | 77 | 1025.4 |
| 20260509185306 | 10 | 60 | 4.8 | 8.0 | 0.00 | 0.00 | 0.00 | 78 | 1025.4 |
| 20260509184806 | 10 | 56 | 3.2 | 8.0 | 0.00 | 0.00 | 0.00 | 78 | 1025.4 |
| 20260509184305 | 10 | 61 | 4.8 | 4.8 | 0.00 | 0.00 | 0.00 | 78 | 1025.4 |
| 20260509183305 | 10 | 51 | 3.2 | 9.7 | 0.00 | 0.00 | 0.00 | 79 | 1025.4 |
| 20260509182805 | 10 | 74 | 3.2 | 4.8 | 0.00 | 0.00 | 0.00 | 80 | 1025.4 |
| 20260509182306 | 10 | 65 | 3.2 | 4.8 | 0.00 | 0.00 | 0.00 | 82 | 1025.4 |
| 20260509180805 | 9 | 60 | 4.8 | 8.0 | 0.00 | 0.00 | 0.00 | 87 | 1025.4 |
| 20260509180304 | 9 | 48 | 4.8 | 8.0 | 0.00 | 0.00 | 0.00 | 88 | 1025.4 |
| 20260509175306 | 8 | 56 | 3.2 | 4.8 | 0.00 | 0.00 | 0.00 | 90 | 1025.3 |
| 20260509174804 | 8 | 50 | 3.2 | 4.8 | 0.00 | 0.00 | 0.00 | 90 | 1025.7 |
| 20260509173805 | 8 | 48 | 3.2 | 4.8 | 0.00 | 0.00 | 0.00 | 91 | 1025.7 |
| 20260509172804 | 8 | 57 | 3.2 | 4.8 | 0.00 | 0.00 | 0.00 | 91 | 1025.7 |
| 20260509172306 | 7 | 52 | 3.2 | 4.8 | 0.00 | 0.00 | 0.00 | 91 | 1025.7 |
| 20260509171304 | 7 | 54 | 0.0 | 1.6 | 0.00 | 0.00 | 0.00 | 92 | 1025.7 |
| 20260509170804 | 7 | 54 | 0.0 | 3.2 | 0.00 | 0.00 | 0.00 | 92 | 1025.7 |
| 20260509165307 | 7 | 45 | 1.6 | 4.8 | 0.00 | 0.00 | 0.00 | 92 | 1025.7 |
| 20260509164305 | 7 | 66 | 1.6 | 3.2 | 0.00 | 0.00 | 0.00 | 91 | 1025.7 |
| 20260509163804 | 7 | 66 | 1.6 | 3.2 | 0.00 | 0.00 | 0.00 | 91 | 1025.7 |
| 20260509163305 | 7 | 66 | 1.6 | 3.2 | 0.00 | 0.00 | 0.00 | 91 | 1025.7 |
| 20260509162307 | 7 | 66 | 1.6 | 3.2 | 0.00 | 0.00 | 0.00 | 91 | 1025.9 |
| 20260509161806 | 7 | 66 | 1.6 | 3.2 | 0.00 | 0.00 | 0.00 | 90 | 1025.9 |
| 20260509161305 | 7 | 66 | 1.6 | 3.2 | 0.00 | 0.00 | 0.00 | 90 | 1025.9 |
| 20260509160825 | 7 | 66 | 1.6 | 3.2 | 0.00 | 0.00 | 0.00 | 90 | 1025.9 |
| 20260509160305 | 7 | 66 | 1.6 | 3.2 | 0.00 | 0.00 | 0.00 | 90 | 1025.9 |
| 20260509155805 | 7 | 66 | 1.6 | 1.6 | 0.00 | 0.00 | 0.00 | 90 | 1025.9 |
| 20260509155306 | 7 | 66 | 1.6 | 3.2 | 0.00 | 0.00 | 0.00 | 89 | 1025.9 |
| 20260509154305 | 7 | 66 | 0.0 | 1.6 | 0.00 | 0.00 | 0.00 | 89 | 1025.9 |
| 20260509153805 | 7 | 66 | 0.0 | 0.0 | 0.00 | 0.00 | 0.00 | 89 | 1025.9 |
| 20260509152804 | 7 | 66 | 0.0 | 0.0 | 0.00 | 0.00 | 0.00 | 89 | 1025.9 |
| 20260509152306 | 7 | 66 | 0.0 | 0.0 | 0.00 | 0.00 | 0.00 | 88 | 1025.9 |
| 20260509151805 | 7 | 66 | 0.0 | 1.6 | 0.00 | 0.00 | 0.00 | 88 | 1025.9 |
| 20260509151304 | 7 | 66 | 0.0 | 1.6 | 0.00 | 0.00 | 0.00 | 88 | 1026.2 |
| 20260509150305 | 7 | 66 | 0.0 | 1.6 | 0.00 | 0.00 | 0.00 | 87 | 1026.2 |
| 20260509145806 | 8 | 66 | 1.6 | 1.6 | 0.00 | 0.00 | 0.00 | 87 | 1026.2 |
| 20260509145306 | 8 | 66 | 0.0 | 1.6 | 0.00 | 0.00 | 0.00 | 87 | 1026.2 |
| 20260509144804 | 8 | 66 | 0.0 | 0.0 | 0.00 | 0.00 | 0.00 | 88 | 1026.2 |
| 20260509144305 | 8 | 66 | 0.0 | 0.0 | 0.00 | 0.00 | 0.00 | 88 | 1026.2 |
| 20260509143805 | 8 | 66 | 0.0 | 0.0 | 0.00 | 0.00 | 0.00 | 88 | 1026.0 |
| 20260509143306 | 8 | 66 | 0.0 | 1.6 | 0.00 | 0.00 | 0.00 | 88 | 1026.0 |
| 20260509142804 | 8 | 66 | 0.0 | 1.6 | 0.00 | 0.00 | 0.00 | 88 | 1026.0 |
| 20260509142307 | 8 | 66 | 0.0 | 3.2 | 0.00 | 0.00 | 0.00 | 88 | 1026.0 |
| 20260509141806 | 8 | 67 | 1.6 | 3.2 | 0.00 | 0.00 | 0.00 | 88 | 1026.0 |
| 20260509141305 | 8 | 56 | 3.2 | 4.8 | 0.00 | 0.00 | 0.00 | 87 | 1026.0 |
| 20260509140805 | 8 | 69 | 1.6 | 3.2 | 0.00 | 0.00 | 0.00 | 87 | 1026.0 |
| 20260509140305 | 8 | 69 | 1.6 | 3.2 | 0.00 | 0.00 | 0.00 | 86 | 1026.0 |
| 20260509135805 | 8 | 70 | 1.6 | 3.2 | 0.00 | 0.00 | 0.00 | 85 | 1026.0 |
| 20260509135306 | 8 | 71 | 1.6 | 4.8 | 0.00 | 0.00 | 0.00 | 85 | 1026.0 |
| 20260509134804 | 8 | 28 | 1.6 | 3.2 | 0.00 | 0.00 | 0.00 | 84 | 1026.0 |
| 20260509134305 | 8 | 14 | 0.0 | 0.0 | 0.00 | 0.00 | 0.00 | 83 | 1026.0 |
| 20260509133806 | 8 | 14 | 1.6 | 1.6 | 0.00 | 0.00 | 0.00 | 83 | 1026.0 |
| 20260509133304 | 8 | 14 | 0.0 | 1.6 | 0.00 | 0.00 | 0.00 | 83 | 1026.0 |
| 20260509132805 | 9 | 14 | 0.0 | 0.0 | 0.00 | 0.00 | 0.00 | 82 | 1026.0 |
| 20260509132307 | 9 | 14 | 0.0 | 0.0 | 0.00 | 0.00 | 0.00 | 82 | 1026.0 |
| 20260509131805 | 9 | 14 | 0.0 | 1.6 | 0.00 | 0.00 | 0.00 | 82 | 1026.0 |
| 20260509131306 | 9 | 14 | 0.0 | 1.6 | 0.00 | 0.00 | 0.00 | 82 | 1026.0 |
| 20260509130806 | 9 | 14 | 0.0 | 1.6 | 0.00 | 0.00 | 0.00 | 81 | 1026.0 |
| 20260509130306 | 10 | 14 | 0.0 | 0.0 | 0.00 | 0.00 | 0.00 | 81 | 1026.0 |
| 20260509125806 | 10 | 14 | 0.0 | 0.0 | 0.00 | 0.00 | 0.00 | 80 | 1026.0 |
| 20260509125307 | 10 | 14 | 0.0 | 1.6 | 0.00 | 0.00 | 0.00 | 80 | 1026.0 |
| 20260509124805 | 10 | 14 | 0.0 | 1.6 | 0.00 | 0.00 | 0.00 | 80 | 1026.0 |
| 20260509124305 | 10 | 14 | 1.6 | 3.2 | 0.00 | 0.00 | 0.00 | 79 | 1026.0 |
| 20260509123806 | 10 | 14 | 1.6 | 3.2 | 0.00 | 0.00 | 0.00 | 79 | 1026.0 |
| 20260509123306 | 10 | 14 | 1.6 | 1.6 | 0.00 | 0.00 | 0.00 | 79 | 1026.0 |
| 20260509122804 | 10 | 14 | 0.0 | 0.0 | 0.00 | 0.00 | 0.00 | 79 | 1026.0 |
| 20260509122306 | 11 | 14 | 0.0 | 0.0 | 0.00 | 0.00 | 0.00 | 78 | 1026.0 |
| 20260509121305 | 11 | 14 | 0.0 | 0.0 | 0.00 | 0.00 | 0.00 | 77 | 1026.0 |
| 20260509120805 | 11 | 14 | 0.0 | 0.0 | 0.00 | 0.00 | 0.00 | 77 | 1026.0 |
| 20260509120305 | 11 | 14 | 0.0 | 0.0 | 0.00 | 0.00 | 0.00 | 76 | 1026.0 |
| 20260509115805 | 11 | 14 | 0.0 | 0.0 | 0.00 | 0.00 | 0.00 | 75 | 1026.0 |
| 20260509114805 | 11 | 14 | 0.0 | 0.0 | 0.00 | 0.00 | 0.00 | 75 | 1025.6 |
| 20260509114304 | 12 | 14 | 0.0 | 0.0 | 0.00 | 0.00 | 0.00 | 74 | 1025.6 |
| 20260509113805 | 12 | 14 | 0.0 | 0.0 | 0.00 | 0.00 | 0.00 | 74 | 1025.6 |
| 20260509113304 | 12 | 14 | 0.0 | 0.0 | 0.00 | 0.00 | 0.00 | 74 | 1025.6 |
| 20260509112805 | 12 | 14 | 0.0 | 0.0 | 0.00 | 0.00 | 0.00 | 73 | 1025.6 |
| 20260509112307 | 12 | 14 | 0.0 | 0.0 | 0.00 | 0.00 | 0.00 | 73 | 1025.6 |
| 20260509111805 | 12 | 14 | 0.0 | 0.0 | 0.00 | 0.00 | 0.00 | 73 | 1025.6 |
| 20260509111305 | 13 | 14 | 0.0 | 1.6 | 0.00 | 0.00 | 0.00 | 72 | 1025.6 |
| 20260509110804 | 13 | 14 | 0.0 | 1.6 | 0.00 | 0.00 | 0.00 | 72 | 1025.6 |
| 20260509105805 | 13 | 10 | 1.6 | 1.6 | 0.00 | 0.00 | 0.00 | 71 | 1025.6 |
| 20260509105306 | 13 | 6 | 0.0 | 3.2 | 0.00 | 0.00 | 0.00 | 70 | 1025.6 |
| 20260509104805 | 14 | 357 | 1.6 | 3.2 | 0.00 | 0.00 | 0.00 | 69 | 1025.6 |
| 20260509104304 | 14 | 294 | 0.0 | 1.6 | 0.00 | 0.00 | 0.00 | 68 | 1025.6 |
| 20260509103805 | 15 | 294 | 1.6 | 1.6 | 0.00 | 0.00 | 0.00 | 67 | 1025.6 |
| 20260509103305 | 15 | 294 | 0.0 | 0.0 | 0.00 | 0.00 | 0.00 | 66 | 1025.6 |
| 20260509102804 | 15 | 294 | 0.0 | 1.6 | 0.00 | 0.00 | 0.00 | 66 | 1025.6 |
| 20260509101805 | 16 | 294 | 0.0 | 1.6 | 0.00 | 0.00 | 0.00 | 64 | 1025.6 |
| 20260509101305 | 16 | 294 | 0.0 | 1.6 | 0.00 | 0.00 | 0.00 | 63 | 1025.5 |
| 20260509100305 | 16 | 294 | 0.0 | 1.6 | 0.00 | 0.00 | 0.00 | 61 | 1025.5 |
| 20260509095306 | 17 | 294 | 0.0 | 1.6 | 0.00 | 0.00 | 0.00 | 59 | 1025.0 |
| 20260509094805 | 17 | 294 | 0.0 | 1.6 | 0.00 | 0.00 | 0.00 | 58 | 1025.0 |
| 20260509093806 | 18 | 294 | 0.0 | 0.0 | 0.00 | 0.00 | 0.00 | 56 | 1025.0 |
| 20260509093305 | 18 | 294 | 0.0 | 1.6 | 0.00 | 0.00 | 0.00 | 55 | 1025.0 |
| 20260509092805 | 18 | 294 | 0.0 | 1.6 | 0.00 | 0.00 | 0.00 | 52 | 1025.0 |
| 20260509092306 | 19 | 308 | 0.0 | 1.6 | 0.00 | 0.00 | 0.00 | 52 | 1025.0 |
| 20260509091805 | 19 | 57 | 0.0 | 1.6 | 0.00 | 0.00 | 0.00 | 51 | 1025.0 |
| 20260509091304 | 19 | 320 | 0.0 | 0.0 | 0.00 | 0.00 | 0.00 | 51 | 1025.0 |
| 20260509085805 | 19 | 8 | 0.0 | 1.6 | 0.00 | 0.00 | 0.00 | 50 | 1025.0 |
| 20260509085306 | 20 | 8 | 0.0 | 1.6 | 0.00 | 0.00 | 0.00 | 48 | 1025.0 |
| 20260509084805 | 20 | 8 | 0.0 | 1.6 | 0.00 | 0.00 | 0.00 | 48 | 1025.1 |
| 20260509084304 | 20 | 5 | 0.0 | 3.2 | 0.00 | 0.00 | 0.00 | 48 | 1025.1 |
| 20260509082307 | 20 | 22 | 1.6 | 4.8 | 0.00 | 0.00 | 0.00 | 47 | 1025.2 |
| 20260509081804 | 21 | 22 | 1.6 | 4.8 | 0.00 | 0.00 | 0.00 | 47 | 1025.2 |
| 20260509080805 | 21 | 48 | 3.2 | 9.7 | 0.00 | 0.00 | 0.00 | 44 | 1025.1 |
| 20260509080305 | 21 | 44 | 4.8 | 9.7 | 0.00 | 0.00 | 0.00 | 43 | 1025.1 |
| 20260509075805 | 21 | 9 | 4.8 | 4.8 | 0.00 | 0.00 | 0.00 | 44 | 1025.1 |
| 20260509075306 | 21 | 33 | 3.2 | 9.7 | 0.00 | 0.00 | 0.00 | 44 | 1025.1 |
| 20260509074305 | 21 | 20 | 3.2 | 8.0 | 0.00 | 0.00 | 0.00 | 43 | 1025.1 |
| 20260509073804 | 21 | 12 | 3.2 | 8.0 | 0.00 | 0.00 | 0.00 | 45 | 1025.1 |
| 20260509072805 | 21 | 41 | 4.8 | 9.7 | 0.00 | 0.00 | 0.00 | 45 | 1025.1 |
| 20260509072306 | 21 | 15 | 4.8 | 14.5 | 0.00 | 0.00 | 0.00 | 45 | 1025.1 |
| 20260509071805 | 22 | 340 | 4.8 | 9.7 | 0.00 | 0.00 | 0.00 | 44 | 1025.1 |
| 20260509071305 | 22 | 357 | 3.2 | 8.0 | 0.00 | 0.00 | 0.00 | 45 | 1025.1 |
| 20260509070805 | 22 | 32 | 4.8 | 9.7 | 0.00 | 0.00 | 0.00 | 45 | 1025.1 |
| 20260509070305 | 22 | 347 | 3.2 | 9.7 | 0.00 | 0.00 | 0.00 | 44 | 1025.1 |
| 20260509065805 | 21 | 31 | 4.8 | 11.3 | 0.00 | 0.00 | 0.00 | 44 | 1025.1 |
| 20260509065306 | 21 | 40 | 4.8 | 14.5 | 0.00 | 0.00 | 0.00 | 46 | 1025.1 |
| 20260509064805 | 21 | 51 | 4.8 | 9.7 | 0.00 | 0.00 | 0.00 | 45 | 1025.1 |
| 20260509064305 | 21 | 27 | 3.2 | 11.3 | 0.00 | 0.00 | 0.00 | 45 | 1025.1 |
| 20260509063304 | 21 | 358 | 3.2 | 11.3 | 0.00 | 0.00 | 0.00 | 46 | 1025.0 |
| 20260509062805 | 21 | 344 | 4.8 | 11.3 | 0.00 | 0.00 | 0.00 | 44 | 1025.0 |
| 20260509062306 | 21 | 22 | 4.8 | 14.5 | 0.00 | 0.00 | 0.00 | 45 | 1025.0 |
| 20260509061804 | 21 | 30 | 6.4 | 11.3 | 0.00 | 0.00 | 0.00 | 49 | 1025.0 |
| 20260509060805 | 21 | 55 | 6.4 | 16.1 | 0.00 | 0.00 | 0.00 | 47 | 1025.0 |
| 20260509060305 | 21 | 49 | 4.8 | 9.7 | 0.00 | 0.00 | 0.00 | 49 | 1025.0 |
| 20260509055805 | 21 | 52 | 3.2 | 9.7 | 0.00 | 0.00 | 0.00 | 49 | 1025.0 |
| 20260509054805 | 21 | 347 | 4.8 | 12.9 | 0.00 | 0.00 | 0.00 | 50 | 1025.0 |
| 20260509054305 | 21 | 29 | 6.4 | 12.9 | 0.00 | 0.00 | 0.00 | 49 | 1025.0 |
| 20260509053805 | 21 | 13 | 8.0 | 12.9 | 0.00 | 0.00 | 0.00 | 48 | 1025.3 |
| 20260509053305 | 21 | 352 | 4.8 | 19.3 | 0.00 | 0.00 | 0.00 | 49 | 1025.3 |
| 20260509052804 | 21 | 32 | 8.0 | 16.1 | 0.00 | 0.00 | 0.00 | 49 | 1025.3 |
| 20260509052307 | 20 | 351 | 4.8 | 11.3 | 0.00 | 0.00 | 0.00 | 52 | 1025.3 |
| 20260509051804 | 20 | 57 | 9.7 | 16.1 | 0.00 | 0.00 | 0.00 | 49 | 1025.3 |
| 20260509051304 | 20 | 32 | 8.0 | 14.5 | 0.00 | 0.00 | 0.00 | 50 | 1025.3 |
| 20260509050805 | 20 | 39 | 6.4 | 16.1 | 0.00 | 0.00 | 0.00 | 52 | 1025.3 |
| 20260509050305 | 21 | 72 | 9.7 | 19.3 | 0.00 | 0.00 | 0.00 | 51 | 1026.5 |
| 20260509045805 | 20 | 0 | 6.4 | 12.9 | 0.00 | 0.00 | 0.00 | 52 | 1026.5 |
| 20260509045306 | 20 | 36 | 4.8 | 14.5 | 0.00 | 0.00 | 0.00 | 53 | 1026.5 |
| 20260509044805 | 21 | 16 | 3.2 | 8.0 | 0.00 | 0.00 | 0.00 | 52 | 1026.5 |
| 20260509044305 | 20 | 45 | 4.8 | 11.3 | 0.00 | 0.00 | 0.00 | 52 | 1026.5 |
| 20260509043806 | 20 | 74 | 4.8 | 14.5 | 0.00 | 0.00 | 0.00 | 53 | 1026.5 |
| 20260509043304 | 20 | 93 | 9.7 | 19.3 | 0.00 | 0.00 | 0.00 | 52 | 1026.5 |
| 20260509042804 | 20 | 36 | 4.8 | 14.5 | 0.00 | 0.00 | 0.00 | 55 | 1026.5 |
| 20260509042306 | 20 | 22 | 4.8 | 19.3 | 0.00 | 0.00 | 0.00 | 53 | 1026.5 |
| 20260509041805 | 20 | 70 | 9.7 | 19.3 | 0.00 | 0.00 | 0.00 | 53 | 1027.0 |
| 20260509041304 | 20 | 358 | 3.2 | 8.0 | 0.00 | 0.00 | 0.00 | 53 | 1027.0 |
| 20260509040805 | 20 | 40 | 11.3 | 20.9 | 0.00 | 0.00 | 0.00 | 54 | 1027.0 |
| 20260509040305 | 19 | 34 | 11.3 | 19.3 | 0.00 | 0.00 | 0.00 | 54 | 1027.0 |
| 20260509035805 | 19 | 21 | 9.7 | 14.5 | 0.00 | 0.00 | 0.00 | 56 | 1027.8 |
| 20260509034804 | 19 | 14 | 8.0 | 19.3 | 0.00 | 0.00 | 0.00 | 58 | 1027.8 |
| 20260509033305 | 19 | 36 | 6.4 | 12.9 | 0.00 | 0.00 | 0.00 | 58 | 1027.8 |
| 20260509032805 | 18 | 65 | 8.0 | 11.3 | 0.00 | 0.00 | 0.00 | 59 | 1028.1 |
| 20260509032306 | 18 | 50 | 9.7 | 14.5 | 0.00 | 0.00 | 0.00 | 59 | 1028.1 |
| 20260509031304 | 18 | 24 | 11.3 | 19.3 | 0.00 | 0.00 | 0.00 | 59 | 1028.6 |
| 20260509030804 | 18 | 34 | 4.8 | 14.5 | 0.00 | 0.00 | 0.00 | 60 | 1028.6 |
| 20260509030305 | 17 | 52 | 8.0 | 16.1 | 0.00 | 0.00 | 0.00 | 61 | 1028.6 |
| 20260509025805 | 17 | 30 | 4.8 | 19.3 | 0.00 | 0.00 | 0.00 | 61 | 1028.6 |
| 20260509024805 | 17 | 45 | 8.0 | 12.9 | 0.00 | 0.00 | 0.00 | 63 | 1028.7 |
| 20260509024305 | 17 | 55 | 6.4 | 19.3 | 0.00 | 0.00 | 0.00 | 62 | 1028.7 |
| 20260509023305 | 16 | 357 | 9.7 | 19.3 | 0.00 | 0.00 | 0.00 | 62 | 1028.7 |
| 20260509022805 | 16 | 48 | 8.0 | 20.9 | 0.00 | 0.00 | 0.00 | 63 | 1028.7 |